Tracking 27419 objects as of 10-Jun-2023
HD Live streaming from Space Station
objects crossing your sky now

STARLINK-4587

Track STARLINK-4587 now!
10-day predictions
STARLINK-4587 is classified as:


NORAD ID: 53635
Int'l Code: 2022-104AZ
Perigee: 545.9 km
Apogee: 547.9 km
Inclination: 53.2 °
Period: 95.4 minutes
Semi major axis: 6917 km
RCS: Unknown
Launch date: August 28, 2022
Source: United States (US)
Launch site: AIR FORCE EASTERN TEST RANGE (AFETR)
Your satellite tracking list
Your tracking list is empty




NASA's NSSDC Master Catalog

Two Line Element Set (TLE):
1 53635U 22104AZ  23160.40801800 -.00000397  00000-0 -68793-5 0  9993
2 53635  53.2173  52.4605 0001418  90.8654 269.2501 15.08837794 44615
Source of the keplerian elements: AFSPC